Torna al catalogo

COSMOS 2593

AttivoNavigazioneSSO
NORAD 65269·PAYLOAD·🇷🇺 Russia

Lanciato Aug 21, 2025 da Plesetsk Cosmodrome

Loading…

Prossimi Passaggi (prossime 24 ore)

TLE

AggiornatoSource: Space-Track

Epoca: Sep 14, 2026, 21:41 UTC

1 65269U 25182C   26257.90361729  .00082364  44428-5  19583-3 0  9994
2 65269  96.5788 187.0883 0006442 123.2396 236.9501 15.96729004 62007

Traccia COSMOS 2593 in tempo reale con AllMySat

Download on the App Store